User: anonymous   Login
Location: Unspecified
(0.0000°N, 0.0000°E)
Time: 17:36:47
(UTC+00:00)
Language:

Kosmos-2100 - Orbit

View from above orbital plane
View from above orbital plane
View from above satellite
View from above satellite

Ground track
Ground track

The orbit data is extracted from the following two-line orbital elements,

1 20804U 90083A   18170.95489463 +.00000023 +00000-0 +77712-5 0  9993
2 20804 082.9379 169.1113 0037957 131.5122 256.5781 13.74315737392247
Epoch (UTC): 19 June 2018 22:55:02
Eccentricity: 0.0037957
inclination: 82.9379°
perigee height: 956 km
apogee height: 1012 km
right ascension of ascending node: 169.1113°
argument of perigee: 131.5122°
revolutions per day: 13.74315737
mean anomaly at epoch: 256.5781°
orbit number at epoch: 39224

The dashed part of the orbit path shows where the satellite is in the earth's shadow,  

DLR